GFSFLT2_925_thetae_057.txt.gz
Theta_e
295 295 295 296 293 293 293 294 294 293 292 294 295 295 294 293 293 293 293 293 293 293 293 294 295 295 295
292 292 291 292 292 292 292 292 291 292 292 292 292 291 291 292 292 291 291 291 292 292 292 293 293 293 294
291 290 290 291 291 291 292 291 291 289 289 290 290 290 289 289 290 290 291 291 291 291 291 291 291 292 292
292 290 291 290 290 290 289 288 288 288 287 287 287 287 288 288 289 288 288 289 289 290 290 290 291 291 291
290 290 290 289 289 288 288 288 287 287 286 285 285 285 285 285 286 286 286 288 289 290 290 290 290 290 290
290 289 288 288 288 287 287 286 285 285 285 284 284 285 286 286 286 287 288 288 289 289 289 290 290 290 290
288 287 286 286 286 286 285 285 284 284 284 284 284 285 285 285 285 286 287 288 288 289 289 289 289 289 289
286 285 285 285 285 285 284 284 284 284 283 284 285 284 285 285 285 285 286 287 287 287 287 287 288 288 288
285 285 285 285 285 285 284 284 283 283 283 283 283 283 284 285 285 285 285 285 285 285 286 286 286 287 287
283 283 283 283 283 283 283 283 282 282 283 283 283 282 282 283 283 283 283 283 282 283 283 284 284 285 285
282 282 282 282 283 283 283 283 282 282 282 282 282 282 282 282 282 282 281 282 282 282 282 282 282 284 284
281 282 282 283 283 282 282 282 281 281 281 281 281 281 281 281 281 282 282 282 282 282 282 282 282 283 283
281 282 282 282 282 281 281 281 281 281 281 281 281 281 281 281 281 281 282 282 282 283 283 282 283 283 283
281 281 281 280 280 280 280 280 280 281 281 281 281 281 281 281 281 282 282 282 282 282 282 282 283 283 283
280 280 280 279 279 279 279 279 279 279 279 280 280 281 282 282 282 282 282 282 282 282 282 282 282 283 284
280 279 279 279 279 279 279 279 279 279 279 279 280 280 281 282 282 282 282 282 283 283 283 282 283 283 284
279 279 279 279 279 279 279 279 279 279 279 279 279 280 280 281 281 282 283 283 283 283 283 283 283 283 284

GFSFLT2_925_thetae_063.txt.gz
Theta_e
300 299 299 296 298 299 300 301 301 300 301 299 298 297 297 297 298 299 298 297 297 297 297 297 297 297 297
295 294 294 294 295 296 296 297 296 298 297 296 296 296 295 296 296 295 295 295 295 294 293 294 294 295 295
293 292 291 291 291 292 292 292 293 293 292 292 293 293 293 294 294 293 292 292 292 292 293 293 293 293 294
292 291 291 291 290 291 290 291 291 291 290 289 289 289 289 290 290 290 290 290 290 290 291 291 291 292 292
291 291 290 290 290 289 289 288 287 287 287 287 287 287 286 286 285 285 287 288 288 289 290 290 291 291 292
289 288 287 287 287 287 287 286 285 285 285 285 285 284 284 284 284 285 286 287 289 290 290 290 290 291 291
287 286 286 286 286 285 285 285 285 285 284 283 283 283 284 285 285 286 287 288 288 289 289 289 290 290 290
285 285 285 285 285 285 285 284 284 284 283 283 283 284 284 285 285 285 286 287 288 288 288 288 288 288 288
284 285 285 285 285 285 284 284 283 282 283 283 282 283 284 285 284 285 286 287 286 286 286 286 286 286 286
283 282 282 282 282 283 283 283 283 281 282 282 282 282 282 283 283 284 284 284 284 284 284 285 285 285 284
280 281 281 281 282 283 282 282 282 282 282 282 282 281 281 281 281 283 284 284 284 283 283 283 283 284 284
280 281 282 282 282 282 281 281 281 281 281 281 281 281 281 281 281 281 282 282 282 283 283 283 283 283 284
281 280 281 281 280 280 280 280 280 280 280 280 280 281 281 281 281 281 281 281 281 281 282 283 282 283 283
280 280 280 280 279 279 279 279 279 279 279 279 279 280 280 281 281 281 281 280 281 281 281 281 281 283 283
280 279 279 279 279 279 279 279 279 279 279 279 279 279 279 279 279 279 280 280 280 281 281 281 281 281 282
279 279 279 278 278 278 279 279 278 278 278 279 279 278 278 279 279 279 280 280 280 281 281 281 281 281 282
278 278 278 278 278 278 278 277 277 277 277 278 278 277 277 277 278 280 281 280 280 281 281 280 281 281 281

GFSFLT2_925_thetae_066.txt.gz
Theta_e
301 300 299 298 297 298 300 301 302 303 304 302 302 301 301 300 300 299 299 300 300 299 299 300 300 300 299
296 297 296 295 295 295 297 298 299 299 299 300 299 298 298 298 297 297 297 297 297 297 297 296 296 296 296
294 293 293 292 293 293 293 294 295 295 296 296 296 295 295 296 296 296 295 294 294 293 293 293 294 294 294
292 292 291 291 291 291 291 291 291 292 292 292 292 293 292 291 292 291 291 291 292 292 292 292 292 292 292
291 290 290 289 289 289 289 288 287 287 287 287 288 288 287 288 288 288 287 288 289 289 290 290 291 291 292
287 286 286 286 286 286 286 286 285 285 285 285 285 285 285 284 284 284 284 286 287 288 289 291 291 291 291
285 285 285 285 285 285 284 284 284 284 284 283 283 283 284 284 284 285 287 288 289 289 290 290 290 290 290
285 285 284 285 285 284 284 284 283 283 282 282 282 283 284 284 284 285 285 287 288 288 289 289 288 288 288
284 284 284 284 284 284 284 283 283 282 282 282 282 283 283 284 284 285 286 287 287 287 287 287 287 287 287
282 281 281 282 282 282 283 282 282 281 282 282 282 281 282 282 283 283 285 286 284 284 284 285 285 285 285
280 280 281 281 282 282 282 282 282 282 282 281 281 281 281 281 281 282 283 283 283 283 284 284 284 284 284
280 281 281 281 282 282 281 281 280 280 281 280 280 281 281 281 281 281 281 281 282 284 284 283 282 282 284
281 280 280 280 280 280 279 280 279 279 280 280 280 280 280 280 280 280 280 281 281 281 281 282 282 282 282
280 280 280 279 279 279 279 278 279 279 279 279 279 279 279 279 279 280 280 280 281 280 280 280 280 281 282
280 279 279 279 279 278 278 278 279 279 278 279 279 279 278 278 278 278 279 279 279 280 280 280 281 281 281
279 279 278 278 278 278 278 278 278 278 277 278 278 278 278 279 280 280 279 279 280 280 280 280 281 281 281
278 278 278 277 277 278 277 277 277 276 277 277 277 276 275 276 278 280 280 280 280 280 280 280 280 280 280

GFSFLT2_925_thetae_069.txt.gz
Theta_e
299 298 298 298 297 298 299 300 301 301 303 303 304 305 304 303 302 301 301 301 300 300 301 301 301 301 301
297 296 296 295 295 295 296 297 298 298 299 300 301 301 300 300 299 299 299 298 298 299 298 299 299 299 299
294 293 293 294 293 293 294 294 295 295 296 297 298 298 298 298 298 297 297 297 297 296 295 295 295 296 296
293 292 291 291 291 291 292 291 292 292 292 293 294 294 295 295 295 294 294 293 293 293 293 293 293 293 293
291 291 289 289 288 287 288 287 287 287 287 287 287 288 288 288 289 290 290 290 290 290 291 291 291 291 292
287 287 286 285 285 285 286 286 288 285 285 286 285 285 285 285 285 285 284 284 286 288 289 290 290 291 291
285 285 285 284 284 284 284 284 285 284 284 284 283 283 283 284 284 283 285 287 288 289 289 290 290 290 290
285 285 285 285 285 285 284 284 283 283 282 283 282 283 284 284 284 284 285 287 288 289 289 289 289 289 289
284 284 284 284 284 284 284 284 283 282 282 282 282 282 282 282 283 284 286 287 287 288 288 288 288 288 288
282 281 281 281 282 282 282 282 282 283 281 282 282 282 283 282 283 283 284 285 285 286 286 286 286 286 286
280 280 281 281 282 282 282 282 282 282 282 281 281 282 282 282 282 282 282 282 283 283 284 284 284 284 285
280 280 281 281 281 281 281 281 280 280 280 280 280 281 281 281 282 282 281 281 282 283 282 282 282 283 283
280 280 280 280 280 280 280 279 279 279 279 279 279 280 279 280 281 281 281 282 281 281 282 282 282 282 282
280 280 280 279 280 279 279 279 279 279 279 279 279 279 279 279 279 280 281 281 281 281 281 281 281 281 281
280 280 280 280 280 279 279 279 279 279 280 278 278 278 278 278 278 279 280 280 280 280 280 280 281 281 282
279 279 279 279 279 278 279 279 279 278 278 277 276 277 278 280 280 280 280 280 280 280 280 280 280 281 282
277 277 277 278 278 278 278 278 278 278 277 277 276 275 277 279 280 279 279 280 280 280 280 281 281 281 282